Showing default

NUSAT-49(K.VON NEUMANN), 60500

Orbit data source: Space-Track

NUSAT-49(K.VON NEUMANN), 60500 is a payload satellite owned by URUGUS S.A. (AR) in SSO that was launched on Fri, 16 Aug 2024 UTC via an FALCON 9 launch vehicle from the Air Force Western Test Range (AFWTR). Payloads include a variety of satellites, spacecraft, and rockets equipped with specific instruments for various scientific and technological missions. These include communications satellites like Starlink; space stations such as the ISS; scientific satellites like the Hubble; Earth observation satellites from companies like Planet Labs, Umbra, and HawkEye 360; GPS; miniature CubeSats for education and research; and military/defense satellites.

Loading next visibility...
NUSAT-49(K.VON NEUMANN) details
Identifier
60500, 2024-149AJ
Orbit
SSO
Last TLE update17 hours ago
Origin
Flag of ARURUGUS S.A. (AR / ARGN)
ManufacturerURUGUS S.A.
MissionOperational spacecraft
Bus & MotorNEWSAT V, Unknown motor
Mass41.5 kg wet, 38.5 kg dry
Launch date (UTC)
2024-08-16 (4 months ago)
Launch vehicle
FALCON 9
Launch site
Air Force Western Test Range (AFWTR)
Object type
Payload
Rocket body
Debris
Shape & HBRUnknown
Radar Cross SectionMedium (>0.1 m² and <1 m²)

Expand to show TLE details & history

TLE from 17 hours ago
0 NUSAT-49(K.VON NEUMANN)
1 60500U 24149AJ  24355.89893845  .00013905  00000-0  60519-3 0  9996
2 60500  97.4300  69.6884 0005387  52.5305 307.6420 15.22335676 19158
Epoch: 2024-12-20T21:34Z
Definitive object data (Epoch: 2024-12-20T21:34:28.282Z)
Latitude-0.00005°
Longitude16.11273°
Altitude499.629 km
Speed7.616 km/s
True Right ascension04h 38m 45s
True Declination0° 00' 00"
Sunlit
Object was in full shadow at TLE epoch
Visualization TLE readout
Latitude-15.93838°
Longitude-165.32493°
Altitude508.302 km
Speed7.607 km/s
Apparent Right ascension19h 41m 59s
Apparent Declination-49° 30' 07"
Sunlit
Object is in daylight
Visualization observer readout
Local Sidereal Time13:14:31
Azimuth129.6° SE
Elevation-33.197°
Doppler factor1
Orbital elements
Apogee altitude499.464 km
Perigee altitude492.058 km
Semi-major axis6,873.898 km
Eccentricity0.0005387
Inclination97.43°
RAAN69.6884°
Arg. of periapsis52.5305°
True anomaly307.5931°
Mean anomaly307.642°
Eccentric anomaly307.61755°
Mean motion3.80836 °/min
BSTAR0.00060519
Orbital period94.53 mins
Loading maneuver chart data...
Loading historical data...
Loading historical data...
Loading historical data...
Loading historical data...
Loading historical data...
Loading historical data...
Loading historical data...

NUSAT-49(K.VON NEUMANN) Visibility forecast

Observer location: undefined°, undefined

Span
Click to sort rows by Start time (UTC) header in descending order
Start Az.
Max El. time (UTC)
Max El. Az.
Max El.
End time (UTC)
End Az.
4 mins2024-12-21 17:05:25.625Z58.946° ENE2024-12-21 17:07:25.625Z95.02° ESE15.513°2024-12-21 17:09:25.625Z130.151° SE
4 mins2024-12-21 18:39:25.625Z331.694° NNW2024-12-21 18:41:25.625Z278.278° WNW25.311°2024-12-21 18:43:25.625Z236.021° WSW
6 mins2024-12-22 05:15:25.625Z171.55° S2024-12-22 05:18:25.625Z325.145° NNW42.631°2024-12-22 05:21:25.625Z345.731° N
|